Location: Walnut Hills Mobile Home Park
(34.0445°N, 117.8184°W)
Time: 02:45:50
(UTC+00:00)

IRIDIUM 114 - Pass Details

Date: 17 December 2025
Orbit: 776 x 779 km, 86.4° (Epoch: 15 January)

Event Time Altitude Azimuth Distance (km) Brightness Sun altitude
Rises 12:57:48 0° 176° (S) 3,245 7.8 -22.7°
Reaches altitude 10° 13:00:09 10° 175° (S) 2,321 7.0 -22.2°
Maximum altitude 13:05:20 76° 90° (E) 804 4.4 -21.2°
Drops below altitude 10° 13:10:33 10° 5° (N) 2,335 6.7 -20.1°
Sets 13:12:54 0° 4° (N) 3,266 7.5 -19.7°
